Location: Unspecified
(0.0000°N, 0.0000°E)
Time: 06:49:27
(UTC+02:00)

ISS - All Passes

Search period start: 22 April 2018 00:00
Search period end: 02 May 2018 00:00
Orbit: 403 x 406 km, 51.6° (Epoch: 22 April)

Date Brightness Start Highest point End Pass type
(mag) Time Alt. Az. Time Alt. Az. Time Alt. Az.
22 Apr - 08:08:55 10° WSW 08:11:57 36° NW 08:14:58 10° NNE daylight
22 Apr - 19:42:34 10° NW 19:45:48 65° SW 19:49:03 10° SSE daylight
23 Apr - 07:16:31 10° SSW 07:19:47 70° SE 07:23:00 10° NE visible
23 Apr - 18:50:33 10° NNW 18:53:37 39° NE 18:56:43 10° SE daylight
24 Apr - 06:24:53 10° S 06:27:34 23° SE 06:30:15 10° ENE visible
24 Apr - 17:59:27 10° NNE 18:01:25 15° NE 18:03:23 10° E daylight
24 Apr - 19:35:34 10° W 19:37:41 16° SW 19:39:49 10° SSW daylight
25 Apr - 07:08:52 10° WSW 07:11:37 25° NW 07:14:22 10° N visible
25 Apr - 18:42:21 10° NW 18:45:27 42° SW 18:48:35 10° SSE daylight
26 Apr - 06:16:09 10° SW 06:19:24 77° WNW 06:22:38 10° NNE visible
26 Apr - 17:50:01 10° NNW 17:53:14 59° NE 17:56:28 10° SE daylight
27 Apr - 05:24:11 10° SSW 05:27:10 33° SE 05:30:09 10° ENE visible
27 Apr - 16:58:28 10° N 17:01:00 20° NE 17:03:31 10° ESE daylight
27 Apr - 18:36:02 10° WSW 18:37:16 12° SW 18:38:31 10° SSW daylight
28 Apr - 04:33:19 10° SSE 04:34:54 13° SE 04:36:30 10° E night (unlit)
28 Apr - 06:08:51 10° W 06:11:11 18° NW 06:13:30 10° N visible
28 Apr - 17:42:06 10° WNW 17:45:00 29° SW 17:47:55 10° S daylight
29 Apr - 05:15:45 10° SW 05:18:55 50° NW 05:22:05 10° NNE night (unlit)
29 Apr - 16:49:28 10° NW 16:52:43 89° NE 16:56:00 10° SE daylight
30 Apr - 04:23:29 10° SSW 04:26:40 49° SE 04:29:48 10° NE night (unlit)
30 Apr - 15:57:35 10° N 16:00:28 28° NE 16:03:20 10° ESE daylight
01 May - 03:32:04 10° S 03:34:22 18° SE 03:36:39 10° E night (unlit)
01 May - 05:08:59 10° W 05:10:38 13° NW 05:12:16 10° NNW night (unlit)
01 May - 15:07:05 10° NE 15:08:09 11° NE 15:09:13 10° ENE daylight
01 May - 16:41:51 10° WNW 16:44:25 21° SW 16:47:00 10° S daylight
